Theta_e
338 340 341 345 344 344 343 344 344 346 340 339 338 338 339 339 338 334 331 329 326 330 337 338 338 341 341 340 340 335 332 339 340 340 333 332 332 326 327 333 335 337 336
339 345 344 344 344 343 342 342 342 341 339 338 339 339 335 331 331 333 332 328 332 335 335 337 335 337 341 337 333 331 332 331 338 339 333 331 330 326 321 331 334 332 335
342 343 346 344 343 343 342 341 342 340 339 338 338 337 332 332 335 336 332 330 333 337 340 341 341 340 337 339 334 332 329 332 331 336 337 340 339 335 334 319 321 325 333
338 343 345 344 345 344 343 342 342 341 340 340 339 337 335 334 335 336 331 331 336 337 339 340 340 338 336 336 333 328 326 329 332 333 337 339 341 339 337 322 325 328 330
329 343 344 345 344 344 344 343 343 343 342 341 342 341 340 337 337 337 334 328 338 341 342 337 336 333 331 333 331 327 325 327 330 335 336 336 339 339 336 323 331 326 333
320 329 341 342 343 344 343 342 342 342 342 342 341 341 341 341 340 339 339 336 332 338 341 341 340 336 332 327 332 332 333 331 325 326 332 335 337 337 336 323 328 328 323
318 318 321 329 335 338 341 342 342 341 341 341 341 341 341 341 340 341 338 339 338 335 336 339 340 340 338 327 327 332 336 332 333 328 334 337 338 336 336 324 320 321 322
316 316 316 316 318 319 320 328 337 341 341 340 340 340 340 340 340 340 340 339 337 339 339 337 336 339 339 335 326 327 334 334 332 335 336 337 337 337 335 328 324 322 324
315 315 315 315 315 315 316 316 318 321 329 336 339 340 339 339 339 339 339 339 339 339 336 335 337 337 338 338 335 326 326 334 333 333 335 334 335 336 335 331 331 327 329
314 314 314 314 314 314 314 314 312 313 314 315 320 326 333 338 339 338 339 339 339 339 339 338 335 335 337 338 338 335 327 326 332 331 331 333 334 334 334 332 333 335 334
316 315 314 313 313 313 314 314 314 314 314 315 316 317 319 323 332 339 342 342 342 341 340 340 338 337 335 335 337 338 335 328 323 326 329 327 331 333 333 332 328 335 335
315 315 314 313 312 313 314 313 313 315 315 315 315 315 315 317 319 322 330 336 341 341 341 340 339 337 338 336 334 336 338 337 330 326 333 332 330 330 331 330 327 330 335
315 315 314 313 312 313 313 312 313 313 313 314 314 315 315 315 315 316 319 329 333 339 341 340 340 339 338 338 337 336 336 338 337 332 328 330 330 329 329 328 327 327 330
315 314 313 312 312 313 312 313 314 314 314 313 314 313 314 314 315 316 316 316 318 330 331 338 339 340 340 339 339 338 337 337 338 334 331 328 328 328 328 327 325 326 329
313 313 312 312 312 312 313 314 314 314 314 314 314 314 314 314 314 314 315 315 316 316 321 330 332 337 339 339 338 338 337 338 338 337 336 335 330 328 327 326 326 327 334
312 312 312 312 312 314 314 314 314 314 314 314 314 314 314 314 314 314 315 315 315 316 317 317 320 330 333 336 337 337 337 336 336 337 337 336 335 336 335 331 329 329 330
311 311 312 313 313 314 314 314 314 314 314 314 314 314 314 314 314 314 313 314 315 315 315 317 317 317 325 330 332 333 334 334 335 335 336 335 336 336 335 336 335 332 333
311 311 312 313 314 313 313 313 314 315 316 316 316 316 316 316 316 315 315 314 314 315 315 317 318 318 318 317 325 327 327 328 332 334 335 336 335 335 335 335 336 335 334
310 310 312 313 313 313 314 313 314 315 316 316 316 315 315 315 315 316 316 316 316 315 316 316 317 318 318 318 318 319 323 326 328 331 331 331 333 334 335 334 334 336 335
310 310 312 312 313 313 313 313 313 313 314 314 314 313 314 314 315 316 316 317 318 318 317 317 317 318 318 319 319 318 318 319 320 322 327 328 329 329 333 334 334 334 334
310 310 311 311 312 313 313 312 312 312 311 312 311 310 310 310 312 313 313 314 315 316 317 319 319 319 319 319 319 319 320 320 321 322 323 322 324 327 330 332 334 334 333
310 310 310 311 311 312 311 312 312 312 311 311 310 309 309 309 309 309 309 310 311 312 313 314 315 316 317 317 319 320 318 319 320 320 320 320 320 321 325 328 328 329 330
310 309 309 310 310 310 310 311 310 310 310 310 309 308 308 308 307 307 307 308 308 309 310 310 312 313 314 314 315 318 322 322 320 320 319 320 318 318 318 320 319 319 322
310 309 309 309 309 309 309 309 309 310 310 309 309 308 308 307 306 306 306 306 306 306 306 307 308 308 310 312 312 315 313 314 319 319 318 317 318 318 318 318 319 319 323
310 309 308 308 309 308 308 307 308 308 308 308 307 307 306 306 305 305 304 304 305 305 304 305 305 306 307 310 311 311 310 311 313 312 314 314 314 315 316 317 317 318 319
309 308 308 308 308 307 307 307 306 306 306 305 303 303 303 303 303 303 302 302 302 303 304 304 305 305 307 308 308 308 309 310 311 310 311 311 311 312 312 312 314 316 316
Wind_Speed
8 4 7 3 3 3 4 3 3 3 2 2 2 1 1 2 3 3 3 3 2 2 1 2 3 5 3 3 2 3 2 3 5 4 5 5 6 7 8 7 4 5 7
6 10 6 4 4 3 2 2 1 1 1 2 2 2 2 3 3 3 3 2 2 2 1 1 1 2 1 1 1 1 1 1 3 3 3 3 4 5 6 5 6 5 8
11 11 10 7 4 3 2 1 1 1 2 2 2 3 3 3 4 4 3 1 1 2 1 2 1 2 1 1 1 2 2 0 3 3 3 2 2 2 3 3 2 4 4
12 12 12 9 6 4 2 2 2 3 3 3 3 3 4 4 4 4 3 2 1 1 3 1 2 2 2 3 3 4 3 3 2 4 5 3 9 1 1 2 3 3 4
12 13 11 8 7 5 3 1 1 3 4 4 5 5 5 5 5 5 4 4 5 5 6 6 5 5 5 5 5 4 4 5 4 4 1 4 6 3 1 1 1 2 4
14 14 11 9 7 5 3 2 1 2 2 4 5 7 7 8 7 7 7 6 7 8 7 8 10 9 7 7 7 6 6 6 7 6 2 6 9 5 4 3 4 3 4
12 12 12 10 9 7 5 2 2 3 4 5 5 7 8 10 10 10 9 10 9 9 10 11 11 12 10 9 9 9 9 9 8 8 10 4 6 9 8 7 6 6 5
12 10 10 12 11 10 9 7 5 5 6 6 7 8 10 11 12 13 13 12 12 13 13 12 12 13 13 12 11 11 11 13 10 10 10 9 11 11 10 9 8 7 7
10 9 9 8 8 10 10 12 9 8 7 8 9 10 11 12 13 14 15 15 15 15 15 15 15 15 16 15 14 13 14 16 15 14 12 13 16 17 16 12 10 10 9
8 7 7 6 7 6 6 11 11 11 11 11 11 11 11 13 13 13 14 16 18 18 18 17 17 17 18 18 17 16 15 17 18 18 18 17 16 16 15 13 13 13 12
8 8 8 9 9 9 8 10 10 10 15 11 11 13 14 12 11 12 13 15 18 19 19 19 19 19 19 20 20 20 19 19 21 20 19 19 19 20 19 18 15 15 15
6 8 10 10 12 11 9 11 11 11 11 11 12 12 14 13 14 15 17 20 20 19 21 22 22 22 21 22 23 21 22 23 23 22 21 22 23 22 20 20 19 18 19
5 6 10 11 12 12 13 13 10 11 12 12 13 12 15 16 15 16 17 17 17 17 18 21 22 24 25 25 24 22 23 24 23 22 22 22 24 24 23 23 22 21 22
4 6 9 11 11 11 13 12 12 12 13 14 14 15 16 17 18 18 18 18 19 20 20 20 21 20 22 22 22 23 25 24 22 23 21 23 25 27 26 26 25 26 24
4 4 8 10 10 12 13 14 14 13 12 14 15 14 14 16 18 19 20 20 20 19 18 20 21 24 22 22 25 23 26 27 27 28 25 22 23 25 26 26 26 25 25
3 4 6 9 10 11 13 13 14 13 14 15 14 14 14 15 17 17 19 20 20 20 20 21 21 22 22 21 22 25 28 27 24 24 26 30 32 30 25 27 29 27 26
2 4 6 7 9 10 10 12 11 11 13 12 13 13 13 14 17 18 18 19 20 21 21 22 22 20 19 21 23 22 24 28 32 34 34 30 27 28 31 31 30 31 30
1 3 6 6 7 9 10 11 9 10 11 11 12 12 12 16 16 17 17 18 18 19 20 20 20 21 22 21 21 23 26 27 27 28 30 29 29 32 30 29 31 33 33
1 2 3 5 6 8 8 10 9 8 7 11 9 11 13 13 13 15 16 16 16 17 17 18 20 20 20 20 21 21 22 25 24 24 27 28 30 31 32 33 33 30 32
2 2 2 3 6 6 7 8 7 8 5 11 11 11 12 12 13 13 12 13 13 14 16 17 18 18 19 18 20 22 25 25 24 23 23 25 28 30 32 34 34 33 34
4 2 2 3 4 5 5 7 9 10 9 10 12 11 12 13 12 14 15 15 15 16 16 15 16 16 17 17 20 21 21 20 22 24 26 29 31 33 32 33 34 33 33
6 3 2 2 2 3 4 5 7 7 6 7 10 10 11 12 13 12 14 15 15 15 16 16 16 15 14 17 12 15 4 10 17 17 15 15 19 17 19 22 24 28 30
8 5 4 3 2 2 4 4 5 5 6 5 9 9 10 10 11 12 13 13 14 14 13 16 16 14 12 21 17 7 4 2 9 13 25 19 24 26 24 22 26 25 25
9 7 4 3 1 1 3 3 4 5 5 8 8 9 8 8 11 11 13 13 13 13 14 13 13 13 13 14 16 9 16 12 3 4 8 22 19 23 23 23 24 25 23
9 8 6 3 2 2 1 2 3 4 5 6 7 7 7 7 10 10 12 11 12 12 13 14 14 14 12 12 13 14 16 17 13 4 6 12 21 19 21 22 24 23 25
11 10 7 6 5 4 2 2 2 2 4 5 7 7 8 7 8 10 12 12 11 12 13 14 14 13 13 13 13 13 12 8 11 6 5 9 10 23 26 28 20 21 20
Wind_Direction
55 29 24 51 117 108 128 120 104 91 86 64 49 59 187 244 271 310 342 7 31 37 48 38 37 45 110 87 63 47 70 64 100 101 88 90 88 83 95 87 48 99 62
50 50 42 53 111 98 100 130 84 73 39 12 5 1 354 345 350 354 355 15 48 52 99 352 6 38 92 17 46 23 20 118 135 108 70 72 74 82 80 95 88 117 118
57 46 72 86 86 66 63 40 29 14 359 348 343 337 345 341 341 344 342 354 50 78 32 290 298 337 286 264 320 321 319 194 178 177 144 131 315 58 49 74 86 101 128
72 66 78 98 101 80 41 5 339 330 328 335 333 321 320 315 321 326 320 291 270 315 315 297 251 286 294 278 290 295 290 257 223 196 208 297 218 197 328 48 70 93 101
62 79 79 84 89 89 86 89 358 315 315 305 313 311 307 300 299 300 295 270 244 249 271 266 273 282 286 278 274 276 274 262 242 226 251 320 204 174 261 14 81 90 154
65 63 73 72 74 73 68 74 349 292 267 276 292 290 291 290 287 285 286 285 270 263 267 264 266 273 286 277 265 264 269 267 260 241 281 259 240 264 259 273 218 222 215
78 57 56 59 59 50 43 23 345 303 289 276 260 266 277 284 281 279 273 269 272 271 271 270 269 265 276 281 267 256 261 264 258 230 268 256 255 243 262 266 242 235 229
76 71 60 34 35 24 17 6 357 333 306 293 281 275 271 266 269 272 271 271 271 270 270 272 270 262 266 276 272 261 250 264 254 244 251 247 252 253 259 261 246 235 231
75 70 59 53 39 15 360 347 339 332 321 311 301 291 284 281 278 274 271 266 265 268 269 270 269 266 265 271 272 267 253 255 259 248 245 258 249 254 259 258 247 241 234
66 54 44 34 26 12 356 336 343 339 330 320 316 310 304 296 288 286 284 275 269 267 267 267 267 265 266 268 270 271 265 257 257 257 249 252 263 251 251 256 242 237 235
46 26 20 10 6 359 6 333 332 340 330 335 331 325 320 318 300 284 286 279 268 265 265 263 264 265 264 264 263 263 264 260 258 260 259 248 261 256 257 260 246 237 238
44 25 7 5 0 357 355 324 345 344 325 327 321 312 310 305 299 288 280 276 267 267 263 265 264 264 262 260 260 259 258 260 258 252 251 257 253 252 253 260 254 242 238
44 11 1 358 358 353 341 346 345 321 327 316 304 314 306 300 303 300 296 296 290 283 274 274 274 264 261 261 260 253 256 258 255 253 248 250 253 250 253 259 259 252 244
63 16 350 355 356 351 344 346 337 336 330 333 319 309 319 315 313 305 304 298 297 286 284 274 272 266 261 259 254 250 250 254 249 248 251 251 252 255 257 262 263 255 249
62 23 358 348 349 352 351 343 343 340 338 326 329 328 325 321 317 312 307 305 303 302 300 288 282 271 269 268 263 254 254 254 252 251 250 254 256 260 261 261 265 258 245
66 11 351 351 351 359 348 340 343 342 340 337 336 334 332 329 324 320 313 306 300 300 300 298 294 283 278 278 275 269 262 259 263 262 256 257 259 259 260 265 265 265 255
57 12 349 355 356 355 351 344 348 344 343 350 348 338 342 339 328 323 316 309 306 300 300 303 302 298 292 277 280 283 279 274 271 267 264 260 261 261 260 258 260 264 268
4 4 352 353 6 356 347 351 358 359 354 357 351 0 358 343 339 334 325 320 313 311 309 306 305 302 300 297 289 284 283 284 280 275 271 269 267 261 258 263 260 256 260
195 335 349 354 348 355 340 356 8 0 8 4 353 348 353 350 347 339 333 327 322 316 311 306 301 300 301 297 295 295 285 279 282 278 277 277 272 269 266 266 261 260 256
217 279 325 328 337 352 340 352 0 346 9 356 352 339 334 342 344 346 343 337 336 325 315 309 304 301 298 300 302 299 297 294 289 286 282 279 275 273 269 266 268 263 262
231 226 275 333 332 340 339 348 355 359 356 351 348 358 357 350 347 340 336 337 340 338 342 340 340 324 308 308 300 294 290 291 287 287 282 274 268 268 268 264 263 262 265
218 218 244 261 288 319 320 348 344 343 346 344 344 352 352 356 352 350 341 344 344 338 337 339 351 349 333 333 335 318 289 292 282 290 318 321 330 329 302 286 283 280 274
208 202 222 239 271 289 348 9 351 355 349 333 342 343 346 348 353 358 354 349 349 347 344 338 345 353 336 321 328 313 320 320 339 311 316 324 325 326 318 316 308 301 296
194 223 222 226 244 308 11 21 357 345 343 343 343 347 348 351 354 360 1 356 351 347 344 345 341 343 338 324 331 328 336 327 326 316 338 324 335 337 339 339 342 333 313
196 217 222 227 246 298 340 348 3 349 345 346 343 352 358 356 356 1 2 0 358 355 349 347 347 344 343 332 337 332 324 321 311 336 301 333 328 329 328 326 325 333 328
209 221 222 223 230 239 241 268 296 326 335 335 345 355 355 357 360 348 1 6 7 360 358 354 352 351 350 348 345 353 350 336 328 325 308 310 299 308 308 310 325 323 325